Vertical_Velocity
-2 -9 -6 6 12 9 -4 -13 2 -4 1 7 -3 1 11 6 9 7 -3 -23 0 -2 0 -2 -1 -1 -1 0 0 1 0 -3 -3 -2 -1 -1 1 -1 -2 0 2 -5 -0 -0 -0 -1 -2 -2 1
-7 -10 4 -3 13 6 -11 -6 -0 6 8 -3 -5 -3 0 -11 9 14 16 -4 37 -11 1 -2 -3 -0 -2 -3 -2 1 -2 -1 -2 -1 1 -3 0 -1 1 0 1 -2 -0 -1 -1 -2 -2 -2 -0
-7 -7 12 4 2 -1 -4 -3 -1 4 -3 -2 -1 3 -1 -4 7 1 2 -7 1 -10 2 -3 -1 -2 -2 -1 -2 2 2 1 -1 -3 -0 2 -1 -3 -2 -0 2 -1 -0 -1 -2 0 -2 -1 -2
8 2 10 11 -3 -18 4 -3 0 -6 6 -3 -3 -0 -4 -2 -1 5 18 -7 -19 15 -13 1 1 -1 -3 -2 1 -0 1 -0 1 0 -1 1 3 2 -3 2 -2 2 -2 -0 -2 1 -2 -1 -2
9 2 3 4 -9 -7 -5 -4 0 -1 -2 -0 1 -11 -7 8 -2 4 32 -6 2 35 -10 -9 1 1 2 -4 0 -0 1 0 -1 -1 -0 -2 2 3 -4 1 3 1 -2 1 -0 -1 -1 0 -3
1 10 5 -1 -7 -7 -5 4 8 2 -4 -15 0 2 -7 8 19 -18 -1 -9 -6 4 -2 -1 -3 5 4 2 -2 -2 1 1 1 -2 1 -1 -1 2 -1 -3 1 2 -2 1 0 -0 -2 -1 -2
11 6 -4 -1 -6 -5 -6 -5 4 1 0 -7 9 5 -7 -14 28 -4 5 -7 -1 16 -0 -4 -7 -6 2 4 0 -2 1 1 2 2 -1 1 -1 2 -0 -0 -2 1 1 -1 -4 2 -0 -3 -2
6 14 3 -4 -3 -22 -13 -1 2 7 -15 -4 -7 -3 -10 27 -4 1 -1 -14 -8 15 8 -8 -1 3 -2 -1 0 1 0 1 1 4 2 4 3 -0 2 1 -1 -1 2 1 -1 0 -1 -3 -2
0 14 -1 -13 7 -23 -8 8 -10 6 6 -1 -15 -7 -14 -3 23 -6 -7 3 -15 -4 3 -5 2 1 4 4 2 2 0 4 5 4 5 2 3 2 2 1 -0 -3 2 2 -0 -0 -1 -3 -2
23 11 -9 -5 -2 -3 -4 12 3 13 -5 -3 3 -14 -3 -23 -7 -9 3 10 -7 -9 -6 -6 -4 -5 -5 -0 3 1 -4 -1 1 1 1 1 3 -1 5 -1 1 -2 -1 2 1 -0 -2 -1 -1
-18 2 -6 -19 1 9 0 -3 -2 7 -8 -4 -0 -3 4 -17 -4 0 3 1 18 -18 1 -7 -6 -5 -1 -5 -3 1 -4 -3 -1 2 3 2 -2 5 3 -2 1 -2 -3 1 -0 -2 -3 -1 -1
20 -4 7 -13 0 4 0 4 -5 12 -16 -7 7 -3 5 20 -12 19 -11 2 10 25 7 -8 -1 -1 -6 -1 -4 0 -4 -2 -3 -1 2 -1 -2 1 -4 0 -1 -2 -3 0 -2 -1 -1 -2 -2
10 -6 0 -4 -1 -1 2 -5 -2 -7 -2 4 2 -2 -0 -4 -1 6 -1 -3 -5 8 18 -0 -9 -1 -2 -2 -3 -0 -4 -3 -2 -0 -1 -2 -1 -1 0 2 -1 -4 -3 -2 -2 0 -2 -4 -2
-1 2 -6 -6 -8 -1 17 -13 37 -28 -5 -0 1 -11 -3 -2 -6 -2 -9 -2 -11 -3 5 59 3 -8 0 -2 -3 2 -0 1 2 -2 -1 2 3 -1 1 -0 1 -3 -2 -2 -0 -1 0 -4 3
3 6 -5 -9 -9 -10 9 -4 -4 -14 -1 -1 2 -5 -3 -7 -7 -12 -6 -11 -10 -17 -6 6 15 1 1 -1 -3 1 1 -3 -0 3 -1 2 1 -3 -1 -1 -3 -0 -0 -2 2 0 -2 3 2
13 14 6 -18 1 -21 30 -32 -13 1 16 -1 1 2 6 17 39 45 41 24 -5 -7 -10 5 48 0 -0 0 -6 -5 8 -0 5 3 2 5 -2 3 3 -2 -4 1 -3 -6 0 -2 4 -3 0
-2 -1 2 -14 1 2 18 -13 -9 -10 0 -4 -3 -4 -3 -7 -9 -1 -7 -4 26 25 -7 -17 11 28 -6 1 3 -5 -0 2 -3 2 -5 -2 1 2 1 -11 3 -1 -1 -9 -2 3 1 1 -3
-1 -1 -7 3 -21 -4 -6 -12 -8 -8 5 1 -4 -6 -7 -3 -8 -9 -7 8 -2 3 19 48 -0 44 1 -2 10 5 -7 20 7 4 -5 4 2 -0 1 -5 10 -3 3 -0 -1 4 2 0 -3
5 5 4 -9 -10 20 -0 -1 -5 -6 -4 -6 -3 4 6 15 6 -27 -30 -12 1 1 -5 -16 56 -5 15 -4 -1 7 -13 3 18 -0 1 -2 -1 -0 2 -2 6 -1 -4 -7 1 2 1 -0 4
1 4 -10 -13 -4 17 -3 -10 -5 0 9 10 4 -5 -4 -10 -13 -7 -2 -7 38 3 14 17 -34 46 6 7 -13 4 3 -9 3 -1 3 3 3 4 1 -0 -3 -6 2 -2 -3 -4 -1 6 3
-4 7 -2 18 -8 -6 10 -10 -7 -7 -8 -8 -8 8 1 2 -4 -6 -12 -2 -2 0 5 0 32 13 -20 13 -4 20 8 20 16 12 6 2 -1 0 2 2 -4 -1 1 -3 -7 -1 -6 -15 6
2 1 5 2 9 1 13 -12 -1 -2 -3 -4 -3 -5 -6 -4 -3 -7 -19 5 -7 -6 -5 7 -6 2 84 4 3 -11 -5 -4 -1 1 5 9 1 -2 -5 -1 -3 -3 -8 5 -8 1 1 13 -13
-7 6 7 4 3 13 -15 10 2 -5 -9 -1 -1 1 1 -2 1 -2 -2 -5 -12 -19 -5 -5 -11 -8 -18 82 41 -6 -5 -6 -5 -8 5 4 1 3 4 2 -2 -2 -0 1 -4 -2 -6 -7 2
1 -3 -2 2 5 6 5 1 5 2 15 -1 -3 -3 1 -2 -2 -1 9 11 3 5 11 -10 -11 12 -43 3 -23 21 -10 -11 5 5 3 -23 13 5 3 5 -2 -6 -7 0 -5 -4 6 -2 -1
-7 -6 -3 -5 3 6 3 -11 20 3 3 9 7 1 -1 -2 -4 -3 -5 -9 -4 -7 1 -1 -10 4 -4 -5 21 34 -3 0 -3 -11 5 14 -18 15 5 3 3 -4 -5 -7 -0 -3 -6 -6 -13
4 8 7 3 2 1 -3 1 13 8 4 3 3 6 3 -5 -4 -3 6 5 -1 2 6 -5 1 -0 4 -4 -3 -7 83 -1 -4 -3 8 6 -11 -16 -2 -3 -2 0 5 7 4 5 3 -5 -3
-10 -5 6 5 -0 -3 4 3 -9 -4 -4 -5 -1 -5 -3 -3 -2 -2 -6 -3 8 2 -13 -2 8 -5 11 3 3 6 34 24 67 19 1 0 11 -27 14 14 12 2 -3 2 0 -3 -5 -2 2
13 8 -8 -3 2 1 3 2 7 -4 -2 -2 -5 -1 -5 -1 -10 -7 -8 -2 -0 15 -3 15 14 1 21 6 -1 8 6 -13 7 2 23 37 17 98 48 7 10 11 2 -3 -0 2 2 -0 -3
-10 -7 -2 4 1 -1 -1 6 4 3 2 2 -0 -0 -2 -3 -4 -2 -7 -9 -0 8 0 -6 -8 -16 43 -14 18 8 7 -12 8 -5 -1 -1 11 -12 69 62 19 13 4 8 8 3 1 -1 4
5 6 4 3 5 3 -4 10 -0 1 2 2 -1 3 2 -3 2 -4 -3 -1 5 -7 -3 -7 6 -10 13 -16 22 -13 15 2 -6 -4 0 -6 -1 -13 9 1 6 13 9 4 6 -1 -2 -6 -4
Height
1518 1517 1516 1515 1517 1503 1498 1483 1463 1458 1460 1465 1474 1480 1482 1480 1478 1492 1487 1489 1486 1491 1492 1495 1498 1501 1504 1508 1510 1512 1513 1516 1518 1520 1523 1527 1529 1532 1535 1537 1538 1542 1546 1547 1549 1550 1552 1555 1556
1517 1516 1519 1514 1512 1510 1492 1467 1466 1467 1469 1473 1478 1481 1482 1481 1480 1484 1485 1489 1490 1491 1493 1495 1497 1500 1503 1507 1511 1512 1513 1515 1518 1521 1523 1526 1530 1533 1536 1539 1540 1543 1546 1549 1550 1552 1553 1556 1558
1517 1517 1519 1506 1503 1506 1496 1470 1462 1466 1471 1476 1478 1479 1480 1481 1482 1485 1487 1490 1492 1489 1492 1494 1497 1499 1503 1506 1509 1513 1515 1517 1519 1522 1525 1526 1530 1534 1538 1541 1542 1544 1547 1549 1552 1553 1555 1558 1560
1516 1515 1515 1510 1503 1488 1480 1474 1468 1466 1468 1472 1477 1480 1482 1481 1483 1486 1486 1489 1491 1490 1491 1493 1495 1498 1500 1504 1508 1512 1515 1517 1519 1523 1526 1529 1530 1533 1538 1542 1544 1546 1548 1550 1553 1555 1557 1559 1562
1517 1513 1510 1504 1496 1484 1478 1475 1474 1470 1469 1470 1475 1477 1480 1482 1484 1486 1487 1486 1490 1492 1489 1492 1495 1497 1499 1502 1507 1511 1515 1517 1519 1523 1527 1530 1532 1534 1538 1543 1545 1546 1549 1551 1553 1556 1559 1560 1564
1517 1509 1510 1507 1491 1477 1471 1468 1467 1468 1470 1473 1475 1478 1479 1480 1480 1483 1483 1484 1489 1489 1488 1490 1494 1497 1498 1500 1503 1509 1514 1516 1519 1522 1526 1529 1533 1535 1538 1543 1546 1547 1549 1552 1554 1556 1559 1562 1566
1514 1510 1507 1497 1488 1481 1475 1472 1468 1468 1468 1471 1474 1477 1478 1477 1478 1478 1478 1482 1485 1486 1485 1488 1491 1494 1496 1499 1501 1505 1511 1515 1517 1519 1524 1528 1531 1536 1538 1542 1546 1549 1550 1552 1555 1557 1560 1563 1567
1512 1508 1499 1492 1488 1480 1472 1469 1467 1467 1464 1468 1475 1476 1479 1478 1476 1475 1477 1479 1485 1484 1482 1482 1486 1489 1492 1495 1498 1501 1508 1511 1515 1518 1522 1527 1529 1534 1537 1541 1544 1549 1551 1552 1555 1557 1560 1564 1568
1508 1503 1494 1487 1483 1473 1468 1464 1463 1462 1463 1467 1473 1476 1478 1477 1478 1476 1476 1475 1479 1481 1480 1479 1482 1485 1488 1491 1494 1498 1504 1508 1513 1516 1520 1525 1528 1532 1536 1540 1543 1548 1551 1553 1554 1557 1560 1564 1568
1504 1492 1485 1478 1475 1470 1468 1467 1467 1464 1461 1462 1467 1470 1472 1475 1475 1474 1474 1473 1471 1474 1475 1475 1477 1479 1483 1487 1490 1493 1498 1502 1508 1512 1516 1521 1526 1529 1533 1537 1542 1546 1550 1553 1554 1557 1560 1564 1567
1498 1489 1483 1477 1474 1473 1469 1467 1468 1465 1459 1463 1461 1462 1465 1470 1469 1469 1470 1469 1467 1467 1467 1469 1473 1474 1477 1480 1483 1487 1490 1496 1501 1505 1510 1516 1521 1527 1531 1534 1538 1542 1547 1551 1553 1556 1559 1563 1566
1491 1484 1480 1476 1475 1471 1466 1463 1461 1461 1458 1460 1459 1460 1460 1460 1463 1463 1465 1465 1465 1467 1462 1464 1465 1468 1471 1473 1476 1479 1483 1487 1494 1498 1503 1509 1515 1521 1525 1528 1534 1538 1543 1548 1551 1554 1559 1562 1566
1490 1485 1480 1478 1476 1472 1469 1461 1454 1456 1455 1457 1456 1455 1454 1455 1457 1458 1459 1461 1460 1460 1462 1455 1457 1460 1463 1466 1469 1472 1475 1479 1486 1491 1495 1503 1508 1514 1519 1525 1529 1534 1540 1545 1549 1553 1557 1561 1566
1489 1485 1480 1476 1472 1471 1468 1454 1458 1452 1456 1453 1452 1450 1448 1450 1451 1452 1454 1454 1455 1454 1455 1455 1451 1453 1456 1459 1463 1466 1468 1472 1480 1484 1488 1496 1502 1509 1515 1520 1525 1529 1536 1542 1547 1551 1555 1559 1565
1487 1481 1476 1471 1466 1465 1463 1439 1443 1448 1447 1441 1439 1438 1438 1439 1441 1442 1444 1445 1446 1448 1449 1449 1445 1446 1447 1452 1457 1462 1464 1468 1474 1478 1481 1490 1497 1503 1510 1516 1521 1525 1532 1539 1545 1550 1554 1558 1563
1487 1479 1471 1461 1453 1451 1450 1421 1439 1441 1439 1436 1435 1434 1432 1431 1432 1434 1434 1434 1436 1439 1440 1442 1443 1438 1441 1445 1450 1457 1462 1463 1469 1474 1478 1483 1491 1497 1504 1512 1516 1521 1528 1535 1542 1546 1551 1555 1560
1478 1470 1462 1453 1449 1450 1455 1435 1446 1446 1442 1438 1438 1434 1433 1430 1428 1427 1426 1427 1428 1431 1432 1434 1435 1430 1432 1439 1443 1449 1456 1457 1462 1467 1470 1478 1485 1492 1498 1506 1511 1517 1522 1530 1538 1543 1547 1549 1556
1477 1473 1469 1469 1465 1461 1459 1446 1448 1453 1450 1446 1441 1437 1434 1431 1429 1426 1423 1422 1422 1421 1422 1424 1425 1428 1422 1431 1436 1441 1449 1454 1456 1458 1461 1469 1477 1484 1492 1499 1505 1511 1516 1524 1532 1538 1541 1546 1550
1487 1485 1479 1476 1470 1464 1461 1452 1451 1455 1453 1448 1442 1438 1434 1432 1424 1426 1423 1417 1415 1414 1415 1415 1416 1418 1417 1419 1427 1434 1435 1444 1449 1453 1454 1460 1468 1475 1484 1491 1500 1503 1508 1516 1523 1532 1535 1542 1546
1493 1488 1480 1467 1466 1467 1461 1455 1452 1450 1458 1460 1458 1451 1446 1437 1428 1423 1417 1412 1412 1411 1410 1413 1411 1410 1411 1413 1416 1424 1427 1435 1439 1444 1449 1452 1460 1467 1475 1482 1490 1496 1502 1510 1518 1524 1530 1538 1542
1489 1483 1477 1474 1467 1465 1457 1448 1448 1455 1466 1463 1461 1460 1455 1453 1440 1429 1420 1415 1408 1402 1398 1397 1400 1402 1402 1403 1406 1416 1421 1425 1429 1436 1441 1445 1452 1460 1468 1475 1482 1488 1494 1500 1509 1516 1520 1528 1535
1491 1486 1479 1472 1468 1462 1454 1462 1480 1473 1475 1473 1473 1468 1461 1453 1444 1435 1422 1408 1407 1404 1397 1388 1389 1387 1392 1397 1396 1401 1408 1405 1417 1425 1432 1434 1443 1450 1458 1466 1473 1479 1485 1492 1500 1508 1514 1518 1525
1490 1479 1475 1466 1464 1459 1448 1456 1493 1482 1477 1479 1482 1478 1474 1465 1455 1446 1439 1428 1420 1408 1399 1389 1389 1382 1382 1389 1381 1386 1398 1405 1412 1417 1422 1429 1435 1441 1447 1454 1466 1470 1477 1485 1492 1498 1506 1513 1517
1486 1477 1462 1454 1453 1465 1473 1468 1496 1495 1500 1499 1494 1485 1478 1468 1460 1449 1438 1429 1418 1409 1396 1387 1383 1384 1386 1386 1382 1381 1386 1397 1404 1406 1411 1417 1420 1433 1436 1446 1454 1461 1467 1475 1482 1489 1495 1503 1510
1489 1481 1471 1461 1457 1463 1472 1482 1510 1509 1505 1505 1499 1488 1480 1472 1461 1449 1440 1430 1416 1405 1394 1384 1384 1379 1375 1373 1374 1379 1377 1384 1393 1399 1399 1410 1416 1424 1429 1437 1443 1451 1458 1464 1471 1478 1487 1493 1501
1493 1491 1496 1488 1472 1471 1476 1504 1510 1512 1513 1509 1503 1492 1483 1473 1467 1458 1447 1437 1426 1414 1396 1392 1386 1380 1378 1375 1366 1369 1374 1376 1382 1389 1395 1396 1404 1415 1420 1424 1431 1441 1448 1454 1460 1467 1475 1484 1492
1499 1497 1491 1490 1476 1487 1506 1515 1504 1515 1515 1509 1500 1493 1486 1481 1473 1464 1453 1444 1432 1419 1407 1397 1387 1381 1379 1373 1370 1365 1357 1373 1378 1380 1384 1391 1392 1404 1414 1419 1420 1428 1437 1445 1450 1457 1466 1474 1482
1506 1501 1496 1485 1480 1495 1505 1511 1525 1522 1518 1510 1503 1499 1493 1487 1478 1470 1462 1450 1438 1427 1413 1404 1399 1394 1392 1375 1370 1363 1367 1369 1366 1375 1379 1384 1389 1374 1400 1409 1418 1421 1427 1434 1440 1448 1456 1464 1471
1512 1506 1499 1497 1492 1482 1497 1524 1530 1528 1522 1515 1509 1503 1498 1490 1483 1476 1469 1459 1448 1436 1424 1411 1401 1402 1385 1377 1377 1374 1364 1367 1369 1375 1374 1372 1367 1370 1367 1395 1408 1416 1421 1429 1432 1438 1445 1451 1458
1518 1514 1505 1487 1499 1490 1500 1528 1531 1527 1521 1516 1509 1502 1497 1493 1487 1479 1472 1463 1451 1441 1431 1423 1412 1405 1391 1394 1370 1379 1383 1376 1372 1375 1374 1375 1381 1383 1383 1387 1400 1411 1415 1420 1425 1430 1434 1439 1445